User: anonymous   Login
Location: Albany
(35.0000°S, 118.0000°E)
Time: 15:03:19
(UTC-05:00)
Language:

SJ-6B - Orbit

View from above orbital plane
View from above orbital plane
View from above satellite
View from above satellite

Ground track
Ground track

The orbit data is extracted from the following two-line orbital elements,

1 28415U 04035C   16040.91182858 +.00002220 +00000-0 +15452-3 0  9991
2 28415 097.7861 060.4149 0053154 355.8080 004.2693 15.05428673624345
Epoch (UTC): 09 February 2016 21:53:01
Eccentricity: 0.0053154
inclination: 97.7861°
perigee height: 513 km
apogee height: 587 km
right ascension of ascending node: 60.4149°
argument of perigee: 355.8080°
revolutions per day: 15.05428673
mean anomaly at epoch: 4.2693°
orbit number at epoch: 62434

The dashed part of the orbit path shows where the satellite is in the earth's shadow,  

DLR